KSPAKCHA

Guest
Details From KSPA - SPARTANBURG DOWNTOWN MEM
To KCHA - Lovell Field
Flight Number -
Tags generated
Created
Modified
Stats Distance 160 nm / 296 km
Max Altitude 20,400 ft / 6,218 m
Waypoints 3
Social Downloads 0
Likes 0
Share VATSIM

Download

Looking for another format? Having issues loading an existing format? Contact us
Advertisement - Login to hide

Notes

Basic altitude profile: - Ascent Rate: 1000ft/min - Ascent Speed: 100kts - Cruise Altitude: 1200000ft - Cruise Speed: 120kts - Descent Rate: 500ft/min - Descent Speed: 100kts Options: - Use NATs: yes - Use PACOTS: no - Use low airways: yes - Use high airways: no

Route

KSPA DILLA KCHA

ID Type Via Altitude Latitude Longitude Leg Dist Tot Dist Heading (true) Name
O KSPA APT - 0 ft / 0 m 34.91573˚ -81.95649˚ - 0 nm - SPARTANBURG DOWNTOWN MEM
DILLA FIX - 20,400 ft / 6,218 m 34.98076˚ -83.17165˚ 59 nm 59 nm 274° / 273° -
O KCHA APT - 0 ft / 0 m 35.03565˚ -85.20349˚ 100 nm 159 nm 272° / 271° Lovell Field

Altitude Profile

Advertisement - Login to hide

KSPA

Details ICAO KSPA
Name SPARTANBURG DOWNTOWN MEM
Region United States
Timezone America/New_York (UTC-4.0)
Stats Elevation 800 ft / 244 m (AMSL)
Location 34.915732° -81.956493°
Runways 1
Magnetic Variation 6.996° W

METAR

KSPA 232235Z AUTO 22004KT 10SM CLR 27/19 A3002 RMK AO2

Decode

TAF

Not found

Departure Runways

ID Width Length Bearing (true) Bearing (mag) Surface Threshold Offset Overrun Length
05 100 ft / 30 m 5,205 ft / 1,587 m 41.44° 48.44° Asphalt 0 ft / 0 m 0 ft / 0 m
23 100 ft / 30 m 5,205 ft / 1,587 m 221.45° 228.45° Asphalt 0 ft / 0 m 0 ft / 0 m

KCHA

Details ICAO KCHA (CHA)
Name Lovell Field
Region United States
Timezone America/New_York (UTC-4.0)
Stats Elevation 683 ft / 208 m (AMSL)
Location 35.035654° -85.203491°
Runways 2
Magnetic Variation 4.783° W

METAR

KCHA 232153Z VRB04KT 10SM SCT050 BKN250 31/18 A3003 RMK AO2 SLP162 TCU DSNT N T03110178

Decode

TAF

TAF KCHA 231720Z 2318/2418 01005KT P6SM SCT025 BKN040 BKN250 FM232300 VRB01KT P6SM FEW040 SCT250 FM241100 VRB02KT P6SM SCT250 FM241500 VRB03KT P6SM SCT040

Decode

Destination Runways

ID Width Length Bearing (true) Bearing (mag) Surface Threshold Offset Overrun Length
02 151 ft / 46 m 7,416 ft / 2,260 m 16.63° 21.41° Asphalt 0 ft / 0 m 49 ft / 15 m
15 151 ft / 46 m 5,580 ft / 1,701 m 145.60° 150.38° Asphalt 105 ft / 32 m 0 ft / 0 m
20 151 ft / 46 m 7,416 ft / 2,260 m 196.63° 201.41° Asphalt 0 ft / 0 m 0 ft / 0 m
33 151 ft / 46 m 5,580 ft / 1,701 m 325.61° 330.39° Asphalt 574 ft / 175 m 0 ft / 0 m

Approach Navaids

Runway Type Ident Frequency Range Bearing (true) Bearing (mag) Slope Elevation
02 Localiser ICGW 108.30 MHz 18 nm / 33 km 16.63° 21.41° - 667 ft / 203 m (AMSL)
02 Glidescope ICGW 108.30 MHz 10 nm / 19 km 16.63° 21.41° 3.00° 675 ft / 206 m (AMSL)
20 Localiser ICHA 109.50 MHz 18 nm / 33 km 196.63° 201.41° - 674 ft / 205 m (AMSL)
20 Glidescope ICHA 109.50 MHz 10 nm / 19 km 196.63° 201.41° 3.00° 663 ft / 202 m (AMSL)

Popular Alternatives